Location: Greenhawk Observatory
(37.3417°N, 122.0298°W)
Time: 17:55:28
(UTC-07:00)

Daily predictions for brighter satellites

Satellite Brightness Start Highest point End
(mag) Time Altitude Azimuth Time Altitude Azimuth Time Altitude Azimuth
Cosmos 2278 Rocket 2.3 19:41:30 10° S 19:47:04 61° ESE 19:52:40 10° NNE
Cosmos 2344 3.7 19:41:47 10° SSW 19:49:28 85° ESE 19:57:50 10° NNE
CZ-3B DEB 3.7 19:37:06 10° SW 19:50:30 70° NW 19:56:30 10° NE
Tiangong 1 0.9 19:51:15 10° WNW 19:54:13 88° SSW 19:57:07 10° ESE
Abrixas 4.2 19:53:30 10° NNW 19:55:44 20° NNE 19:57:56 10° ENE
H-2A R/B 3.6 19:53:48 10° SE 19:57:16 32° ENE 20:00:48 10° N
ATLAS 5 CENTAUR R/B 3.0 19:54:37 10° SSE 19:57:56 20° ESE 20:01:24 10° ENE
Okean 3 Rocket 4.3 19:54:26 10° NNE 19:58:24 32° ENE 20:02:22 10° SE
Cosmos 2297 4.2 19:58:01 10° S 20:03:09 36° ESE 20:08:20 10° NE
Cosmos 1867 4.0 19:58:49 10° S 20:03:49 39° ESE 20:08:52 10° NE
Cosmos 1707 4.1 20:00:34 10° NNW 20:04:17 44° W 20:07:57 10° SSW
Cosmos 1934 Rocket 3.9 19:58:40 10° S 20:04:48 82° E 20:10:54 10° N
FREGAT/IRIS 2.9 20:02:22 10° S 20:05:25 70° W 20:08:29 10° NNW
BREEZE-M DEB (TANK) 3.3 20:02:58 10° SSW 20:05:32 31° SE 20:11:24 10° ENE
FengYun 1-2 T 4.3 20:01:21 10° SSE 20:06:51 65° ENE 20:12:25 10° N
Cosmos 1758 4.0 20:03:37 10° SSE 20:07:10 32° E 20:10:45 10° NNE
Spot 2 Rocket 3.8 20:02:48 10° SE 20:07:38 45° ENE 20:12:30 10° N
USA 215 4.1 20:02:45 10° ENE 20:08:15 28° SE 20:13:41 10° S
Cosmos 1812 Rocket 4.0 20:04:15 10° SSW 20:08:38 68° W 20:13:01 10° N
Helios 1B rocket 3.6 20:07:19 10° NE 20:10:35 22° E 20:13:51 10° SSE
Cosmos 1076 Rocket 4.4 20:07:22 10° NNE 20:11:01 27° ENE 20:14:39 10° SE
USA 186 3.2 20:11:28 12° ENE 20:11:28 12° ENE 20:12:02 10° NE
Lacrosse 5 2.9 20:10:01 10° WSW 20:14:54 47° NW 20:19:48 10° NNE
Cosmos 1953 2.8 20:11:16 10° SSE 20:15:02 38° E 20:18:48 10° NNE
Lacrosse 4 Rocket 4.2 20:13:31 10° W 20:16:24 19° NW 20:19:17 10° N
Cosmos 2082 Rocket 3.0 20:14:09 10° N 20:19:14 32° ENE 20:23:04 15° ESE
Meteor 1-24 Rocket 3.9 20:14:03 10° NNW 20:19:34 76° W 20:25:17 10° S
Delta 2 Rocket 4.4 20:17:03 10° W 20:21:42 42° SSW 20:25:01 15° SE
GP-B 3.9 20:18:17 10° SE 20:22:06 29° E 20:25:56 10° NNE
Helios 1A 3.8 20:20:02 14° SE 20:22:55 30° ENE 20:26:33 10° N
Cosmos 1271 Rocket 4.0 20:20:08 10° SE 20:23:15 22° E 20:26:24 10° NE
CZ-2C R/B 0.7 20:23:47 10° N 20:25:33 82° W 20:27:34 10° S
Envisat 4.1 20:23:11 16° ESE 20:25:51 25° ENE 20:29:57 10° NNE
Cosmos 1766 4.2 20:22:16 10° SSW 20:26:02 50° W 20:29:50 10° N
Cosmos 1766 Rocket 4.4 20:23:14 10° NNE 20:27:14 31° ENE 20:29:49 18° SE
Resurs 01 Rocket 1.5 20:24:02 10° SSE 20:28:25 79° ENE 20:32:51 10° N
Cosmos 1125 Rocket 3.4 20:29:00 10° S 20:34:09 74° ESE 20:39:22 10° NNE
Cosmos-2242 3.5 20:31:27 10° SSE 20:35:18 35° E 20:39:10 10° NNE
HJ-1C 4.5 20:32:08 10° S 20:35:24 47° W 20:38:43 10° NNW
Lacrosse 5 rocket 3.1 20:34:38 10° N 20:37:04 16° NNE 20:38:08 14° NE
Cosmos 1048 Rocket 4.2 20:34:45 10° N 20:39:43 48° ENE 20:42:46 22° SE
Cosmos 1674 3.2 20:37:18 10° N 20:40:51 37° E 20:41:50 31° ESE
Geosat 3.9 20:36:17 10° NNE 20:41:19 77° ESE 20:46:20 10° SSW
SAR-Lupe-4 3.7 20:40:16 26° SE 20:42:00 51° ENE 20:45:29 10° N
ERS-1 Rocket 4.3 20:43:21 20° ENE 20:43:45 20° ENE 20:47:21 10° NNE
SeaSat 1 3.1 20:42:19 10° S 20:47:07 54° WSW 20:51:58 10° NW
Cosmos 1605 Rocket 4.5 20:42:30 10° SSW 20:48:42 65° W 20:55:02 10° N
Cosmos 2100 Rocket 4.1 20:44:45 10° SSE 20:50:51 54° E 20:57:02 10° NNE
RESURS DK-1 4.3 20:48:32 10° NW 20:52:09 29° WSW 20:55:44 10° SSW
CZ-2D R/B 3.5 20:48:58 10° S 20:52:48 70° W 20:56:42 10° NNW
Meteor 1-29 2.9 20:51:11 10° NNE 20:54:37 60° ESE 20:55:57 33° SSE
GPS 2-05 Rocket1 3.0 20:53:12 10° WSW 20:56:43 54° S 20:56:59 52° SSE
Cosmos 1743 Rocket 4.5 20:54:45 10° NNE 20:58:13 31° ENE 20:58:13 31° ENE
SAR-Lupe-1 3.9 20:59:56 48° SSE 21:00:50 81° ENE 21:04:26 10° N
COSMOS 2487 2.3 20:57:23 10° NNW 21:00:57 70° ENE 21:01:13 66° ESE
Meteor 1-4 Rocket 4.1 21:04:02 10° SW 21:07:14 35° WNW 21:10:28 10° N
Meteor 1-21 Rocket 4.4 21:04:26 10° NNW 21:10:17 76° W 21:16:11 10° S
Cosmos 1802 Rocket 3.9 21:06:11 10° S 21:12:12 63° E 21:18:17 10° NNE
Cosmos 1818 3.8 21:07:58 10° NW 21:13:22 67° WSW 21:16:04 29° S
Cosmos 1470 2.8 21:10:52 17° S 21:13:55 80° W 21:17:55 10° N
Cosmos 2251 Rocket 4.5 21:10:22 10° N 21:14:42 31° NE 21:14:42 31° NE
CZ-4B DEB 3.7 21:17:11 43° NNW 21:17:11 43° NNW 21:19:24 10° NNW
Cosmos 1269 Rocket 4.2 21:13:53 10° NNW 21:19:09 70° WSW 21:21:48 29° S
Cosmos 1408 Rocket 3.9 21:15:34 10° NNW 21:20:00 66° W 21:22:05 30° SSW
Cosmos 1733 3.5 21:20:41 33° SSW 21:22:15 64° W 21:26:07 10° N
Cosmos 1340 Rocket 2.9 21:20:01 10° N 21:23:30 65° N 21:23:30 65° N
ISS -2.4 21:21:41 10° WSW 21:23:53 37° W 21:23:53 37° W
Cosmos 2061 Rocket 4.0 21:19:33 10° S 21:25:57 89° E 21:32:25 10° N
Cosmos 1833 Rocket 2.7 21:21:39 10° NNW 21:27:17 77° WSW 21:29:08 43° S
Tiangong 1 4.0 21:28:25 10° WSW 21:28:46 11° WSW 21:28:46 11° WSW
Timation 2 Rocket 3.9 21:27:20 10° NNW 21:33:38 79° WSW 21:35:28 47° S
Cosmos 1459 Rocket 4.4 21:35:55 10° SSW 21:42:06 62° W 21:48:14 10° N
ATLAS 5 CENTAUR R/B 2.9 21:37:43 10° WSW 21:42:10 42° NW 21:46:58 10° NNE
USA 215 3.4 21:45:02 10° NE 21:51:32 71° NW 21:58:00 10° WSW
Cosmos 1864 Rocket 4.4 21:53:29 75° ENE 21:53:29 75° ENE 21:59:29 10° N
Cosmos 1939 Rocket 4.4 21:57:22 36° WNW 21:57:22 36° WNW 22:00:38 10° NNW
SPOT 5 4.2 22:03:31 36° N 22:03:31 36° N 22:06:44 10° N
Cosmos 2082 Rocket 3.6 21:58:14 10° NW 22:03:14 33° WSW 22:04:59 27° SW
Envisat 4.4 22:03:23 30° SW 22:04:40 34° W 22:09:17 10° NNW
H-2A R/B 4.0 22:14:06 21° NNE 22:14:06 21° NNE 22:16:00 10° N
ARGOS 4.4 22:14:34 33° N 22:14:34 33° N 22:17:31 10° N
Lacrosse 5 rocket 4.0 22:12:53 10° NW 22:13:51 17° NW 22:13:51 17° NW
ERS-1 Rocket 4.3 22:23:22 37° WNW 22:23:22 37° WNW 22:26:59 10° NNW
CZ-3 Stage 3 3.5 22:02:33 10° W 22:22:05 49° SSW 22:22:05 49° SSW
USA 267 4.1 22:22:50 39° NNE 22:22:50 39° NNE 22:28:21 10° NNW
